Location: Melbourne
(37.8170°S, 144.9670°E)
Time: 17:42:40
(UTC+10:00)

CZ-3 R/B - Visible Passes

Search period start: 29 May 2016 00:00
Search period end: 08 June 2016 00:00
Orbit: 208 x 11047 km, 28.5° (Epoch: 28 May)

Date Brightness Start Highest point End Pass type
(mag) Time Alt. Az. Time Alt. Az. Time Alt. Az.
29 May 4.1 03:32:22 59° NNW 03:35:15 62° N 03:45:54 10° ENE visible
29 May 6.7 19:39:38 10° N 20:43:49 26° NE 20:52:02 25° NE visible
29 May 5.0 23:45:10 10° NW 01:21:20 35° ENE 01:28:09 10° E visible
30 May 3.4 04:59:31 32° WNW 05:09:24 54° NNW 05:16:25 10° ENE visible
30 May 6.0 21:09:05 10° NNW 23:10:03 - E 22:18:28 41° NNE visible
31 May 4.4 01:38:38 10° WNW 02:48:10 62° NNE 02:59:44 10° E visible
31 May 3.3 06:26:50 10° W 06:40:43 30° NW 06:45:32 10° NNE visible
31 May 6.8 18:54:20 10° NNE 19:48:53 20° NE 20:06:35 19° ENE visible
31 May 5.4 22:47:37 10° NW 00:36:33 22° E 00:40:28 10° E visible
01 Jun 3.8 04:14:38 48° WNW 04:21:02 60° NNW 04:29:57 10° ENE visible
01 Jun 6.5 20:17:26 10° NNW 21:32:26 37° NE 21:32:26 37° NE visible
02 Jun 4.7 00:35:07 10° WNW 02:02:42 50° ENE 02:12:02 10° E visible
02 Jun 3.4 05:40:45 21° W 05:52:46 42° NNW 05:58:53 10° NE visible
02 Jun 6.9 18:14:31 10° NNE 18:52:58 15° ENE 19:20:04 12° ENE visible
02 Jun 5.7 21:51:17 10° NNW 23:50:31 11° E 23:50:58 10° E visible
03 Jun 4.2 02:31:55 10° WNW 03:30:34 65° N 03:42:01 10° ENE visible
03 Jun 6.6 19:26:33 10° N 20:34:48 32° NE 20:45:21 31° ENE visible
03 Jun 5.1 23:32:53 10° NW 01:16:00 35° ENE 01:22:43 10° E visible
04 Jun 3.6 04:53:56 35° WNW 05:02:59 52° NNW 05:10:43 10° NE visible
04 Jun 6.0 20:55:57 10° NNW 23:03:14 - E 22:10:21 47° NNE visible
05 Jun 4.4 01:24:06 10° WNW 02:41:07 64° NNE 02:52:34 10° ENE visible
05 Jun 3.7 06:19:00 12° W 06:32:18 27° NW 06:37:45 10° NNE visible
05 Jun 6.7 18:36:48 10° N 19:35:48 26° NE 19:57:12 23° ENE visible
05 Jun 5.5 22:32:23 10° NW 00:28:03 21° E 00:31:39 10° E visible
06 Jun 3.9 04:05:53 52° WNW 04:11:09 60° NNW 04:21:03 10° ENE visible
06 Jun 6.4 20:01:21 10° NNW 21:17:14 43° NE 21:21:35 43° NE visible
07 Jun 4.8 00:16:59 10° WNW 01:52:30 48° ENE 02:01:32 10° E visible
07 Jun 3.7 05:30:18 25° W 05:41:05 40° NW 05:48:06 10° NNE visible
07 Jun 6.8 17:49:52 10° NNE 18:36:10 19° ENE 19:07:57 14° E visible
07 Jun 5.8 21:33:21 10° NW 23:38:52 10° E 22:45:40 54° N visible
